OpenBCM V1.13 (Linux)

Packet Radio Mailbox

DB0FHN

[JN59NK Nuernberg]

 Login: GUEST





  
LU9DCE > KEP      15.05.19 20:34l 244 Lines 12085 Bytes #999 (0) @ WW
BID : 24535_LU9DCE
Read: DF7EAV DK3UZ GUEST
Subj: TLE 15 05
Path: DB0FHN<DB0BLO<DB0ERF<DB0RES<IR2UBX<IZ3LSV<IW0QNL<JH4XSY<N3HYM<LU9DCE
Sent: 190515/1801Z 24535@LU9DCE.TOR.BA.ARG.SOAM LinBPQ6.0.18

            __    _  _  ___  ____   ___  ____    ____  ____  ____
           (  )  / )( \/ _ \(    \ / __)(  __)  (  _ \(  _ \/ ___)
           / (_/\) \/ (\__  )) D (( (__  ) _)    ) _ ( ) _ (\___ \
           \____/\____/(___/(____/ \___)(____)  (____/(____/(____/
               ESTACION DE PACKET RADIO - BUENOS AIRES (GF05OM)
                   BOLETINES INFORMATIVOS PROGRAMADOS (BIP)
              28.125 USB @ 300 BAUD --- HELLOCODELINUX@GMAIL.COM

+----------------------------------------------------------------------------+
OSCAR 7
1  7530U 74089B   19135.48232763 -.00000040  00000-0  28546-4 0  9991
2  7530 101.7411 103.4981 0012564  54.0989  60.7663 12.53638059 36235
OSCAR 11 (UoSAT 2)
1 14781U 84021B   19135.15635962  .00000104  00000-0  18928-4 0  9999
2 14781  97.6136 161.5030 0010027  76.2638 283.9692 14.83083665893646
OSCAR 19 (LUSAT)
1 20442U 90005G   19134.89517170 -.00000000 +00000-0 +16211-4 0  9998
2 20442 098.6464 076.9581 0010629 250.6030 109.4005 14.32924574531336
EYESAT A
1 22825U 93061C   19135.21624353  .00000010  00000-0  21886-4 0  9993
2 22825  98.9019 123.0698 0009518  98.2889 261.9372 14.30058151337026
ITAMSAT
1 22826U 93061D   19134.52643821 +.00000021 +00000-0 +25804-4 0  9994
2 22826 098.8959 122.3602 0010064 090.3127 269.9208 14.30391567336871
RADIO ROSTO
1 23439U 94085A   19135.45896346 -.00000024  00000-0  51045-3 0  9996
2 23439  64.8137 171.4850 0146680 119.9002 241.6583 11.27567842  4191
JAS 2
1 24278U 96046B   19135.38759020  .00000008  00000-0  45798-4 0  9996
2 24278  98.5323 293.4589 0349817 329.1384  28.9601 13.53090933123162
TECHSAT 1B
1 25397U 98043D   19134.90071324 -.00000019 +00000-0 +10917-4 0  9997
2 25397 098.6867 075.4709 0002186 114.2148 245.9259 14.23665084082704
ISS (ZARYA)
1 25544U 98067A   19135.53745839  .00001999  00000-0  39296-4 0  9994
2 25544  51.6419 163.4228 0001367 358.1633 134.8998 15.52675605170181
PCSAT
1 26931U 01043C   19135.31256487 -.00000014  00000-0  26365-4 0  9996
2 26931  67.0510  92.3936 0006319 280.0776  79.9612 14.30541554920055
SAUDISAT 1C
1 27607U 02058C   19135.38810989  .00000047  00000-0  27378-4 0  9994
2 27607  64.5532 154.4751 0082224 263.0637  96.1107 14.75544805881971
CUTE-1
1 27844U 03031E   19135.46074783  .00000072  00000-0  52041-4 0  9995
2 27844  98.6848 144.1850 0010859 126.2367 233.9816 14.22175785823426
CUBESAT XI 4
1 27848U 03031J   19134.80976769  .00000052  00000-0  43475-4 0  9990
2 27848  98.6926 144.0361 0010550 138.2685 221.9299 14.21770896823185
MOZHAYETS 4
1 27939U 03042A   19135.39366928  .00000148  00000-0  35093-4 0  9991
2 27939  98.0343 271.8887 0013145 170.3025 189.8436 14.66777458835518
CUBESAT XI 5
1 28895U 05043F   19135.39545934  .00000155  00000-0  38528-4 0  9996
2 28895  97.9540 279.3124 0018247  99.7094 260.6170 14.63659066722476
CUTE-1.7+APD II
1 32785U 08021C   19135.19538838  .00000340  00000-0  42340-4 0  9994
2 32785  97.5495 136.5377 0013698  24.1677 336.0181 14.88295617598557
DELFI C3
1 32789U 08021G   19135.08866892  .00002136  00000-0  14704-3 0  9997
2 32789  97.4672 185.7941 0010865 239.1500 120.8660 15.06875639601753
SEEDS
1 32791U 08021J   19135.47316411  .00000337  00000-0  39634-4 0  9991
2 32791  97.5286 142.7392 0013241 359.4861   0.6342 14.90798983599013
YUBELEINY
1 32953U 08025A   19135.43886741  .00000020  00000-0  75656-4 0  9992
2 32953  82.5016 166.0645 0018743 200.3194 159.7140 12.43089442498056
PRISM (HITOMI)
1 33493U 09002B   19135.03009416  .00000460  00000-0  45944-4 0  9995
2 33493  98.1222  54.6700 0014183 301.3558  58.6273 14.96616320559965
KKS-1 (KISEKI)
1 33499U 09002H   19135.15583020  .00000163  00000-0  32038-4 0  9992
2 33499  98.3526 332.7582 0008367 323.4962  36.5675 14.75432740554133
SWISSCUBE
1 35932U 09051B   19135.03661186  .00000174  00000-0  50290-4 0  9999
2 35932  98.5846 300.0020 0006366 271.7380  88.3088 14.56274121511733
BEESAT
1 35933U 09051C   19135.45395021  .00000156  00000-0  46249-4 0  9997
2 35933  98.5875 302.1732 0004603 286.9347  73.1345 14.56364867511906
ITUPSAT 1
1 35935U 09051E   19134.46074021  .00000111  00000-0  36714-4 0  9990
2 35935  98.5985 301.3912 0006929 285.9333  74.1100 14.55525794511512
XIWANG-1 (HOPE-1)
1 36122U 09072B   19134.69759781 -.00000052  00000-0 -26954-4 0  9991
2 36122 100.0727 138.7236 0008196  69.1769 291.0217 13.16349231452270
TISAT 1
1 36799U 10035E   19135.45823384  .00000366  00000-0  43079-4 0  9991
2 36799  98.1512 286.4850 0012029 191.8630 168.2305 14.91079464479669
JUGNU
1 37839U 11058B   19134.50202250 +.00000320 +00000-0 +28957-4 0  9999
2 37839 019.9598 188.1717 0018778 299.7172 194.4553 14.12650050392160
SRMSAT
1 37841U 11058D   19135.29630198  .00000307  00000-0  23634-4 0  9997
2 37841  19.9714 239.4202 0011721 178.2754  45.2773 14.10631485391839
M-CUBED/EXP-1 PRIME
1 37855U 11061F   19135.17070708  .00001253  00000-0  70552-4 0  9990
2 37855 101.7194  13.0460 0173759 179.0970 181.0589 15.05337587411587
HORYU 2
1 38340U 12025D   19135.33422609  .00000251  00000-0  44688-4 0  9998
2 38340  98.3322 172.8880 0010509 228.8204 131.2098 14.75705818376097
STRAND 1
1 39090U 13009E   19135.48273598  .00000042  00000-0  30091-4 0  9992
2 39090  98.4919 342.0099 0009906  36.9127 323.2739 14.35082843325481
SOMP
1 39134U 13015E   19135.21542579  .00002141  00000-0  10722-3 0  9997
2 39134  64.8628 132.1272 0027941 309.1877  50.6769 15.20073543335354
BEESAT 3
1 39135U 13015F   19135.20833257  .00001581  00000-0  88378-4 0  9993
2 39135  64.8652 149.9682 0015978 324.1650  35.8403 15.17390125335013
BEESAT 2
1 39136U 13015G   19135.23246000  .00001270  00000-0  74043-4 0  9990
2 39136  64.8679 153.6070 0016849 309.8725  50.0918 15.16831560334940
CUBEBUG 1
1 39153U 13018D   19135.22819936  .00000229  00000-0  36843-4 0  9994
2 39153  97.9758 233.5516 0015792 313.5385  46.4514 14.80553840326716
ZACUBE
1 39417U 13066B   19135.18261102  .00000320  00000-0  46350-4 0  9997
2 39417  97.5642 150.6214 0059898 145.8866 214.6220 14.81099121295936
TRITON 1
1 39427U 13066M   19135.16615487  .00000210  00000-0  41840-4 0  9992
2 39427  97.6737 114.6826 0112286 276.1715  82.6708 14.67825204293276
GOMX 1
1 39430U 13066Q   19135.61218870  .00000624  00000-0  12182-3 0  9996
2 39430  97.7438  94.4128 0151399   2.3632 357.8367 14.59238521291631
HUMSAT D
1 39433U 13066T   19135.07906227  .00000746  00000-0  77960-4 0  9990
2 39433  97.5568 183.9927 0032121  58.1549 302.2790 14.92162133297917
CUBEBUG 2
1 39440U 13066AA  19135.03778657  .00000236  00000-0  39797-4 0  9998
2 39440  97.6019 135.5226 0079809 196.4878 163.3735 14.75837973294865
FUNCUBE 1
1 39444U 13066AE  19135.26972284  .00000382  00000-0  53192-4 0  9996
2 39444  97.5624 152.6149 0059190 139.7096 220.8526 14.81914389294835
UWE-3
1 39446U 13066AG  19135.23671987  .00000288  00000-0  44740-4 0  9995
2 39446  97.5819 142.6901 0070293 171.2161 189.0299 14.78372382294176
SPROUT
1 39770U 14029E   19135.25328877  .00001829  00000-0  20872-3 0  9995
2 39770  97.8812 238.7793 0008448 189.8458 170.2593 14.87301522269714
UNISAT 6
1 40012U 14033C   19135.18990018  .00000233  00000-0  42185-4 0  9995
2 40012  97.7625   3.2791 0057550 207.9535 151.8580 14.73963378263606
DUCHIFAT 1
1 40021U 14033M   19134.43626045  .00000339  00000-0  40497-4 0  9999
2 40021  97.9238  58.9147 0013223 159.8869 200.2873 14.90600046266295
QB50P1
1 40025U 14033R   19135.02322438  .00000301  00000-0  37999-4 0  9990
2 40025  97.9067  54.7623 0012621 166.8232 193.3317 14.88922479266160
CHUBUSAT 1
1 40300U 14070C   19135.46982819  .00000936  00000-0  43765-4 0  9992
2 40300  97.3301 210.5177 0019695 171.9887 253.7623 15.22039469250811
NUDT-PHONESAT
1 40900U 15049B   19135.40885282  .00002837  00000-0  12478-3 0  9993
2 40900  97.4380 145.0855 0011345 310.7155 155.8459 15.22654844202440
ZDPS 2A
1 40901U 15049C   19135.46506061  .00000720  00000-0  39065-4 0  9996
2 40901  97.4598 141.7870 0012443 329.5645 158.5454 15.17667000202047
ZDPS 2B
1 40902U 15049D   19135.48515377  .00002192  00000-0  11266-3 0  9996
2 40902  97.4556 139.3565 0012386 325.5294 158.2400 15.17466814202024
XW-2A
1 40903U 15049E   19135.44831597  .00002673  00000-0  65224-4 0  9996
2 40903  97.3412 178.0147 0011824 269.7204 198.4574 15.41722271204970
KAITUO 1A
1 40904U 15049F   19135.40445479  .00000582  00000-0  34329-4 0  9992
2 40904  97.4666 138.0034 0013598 333.7560 165.7185 15.15333250201801
OBJECT G
1 40905U 15049G   19135.45848704  .00000077  00000-0  77698-5 0  9992
2 40905  97.4701 135.6532 0014569 327.0975 161.0159 15.14262158201697
XW-2C
1 40906U 15049H   19135.40688655  .00001003  00000-0  56186-4 0  9993
2 40906  97.4674 138.0579 0013684 324.4043 145.3048 15.15632660201804
XW-2D
1 40907U 15049J   19135.38798155  .00000577  00000-0  33629-4 0  9990
2 40907  97.4654 137.7152 0012983 321.9834 143.7846 15.15814156201818
LILACSAT 2
1 40908U 15049K   19135.35611049  .00001335  00000-0  77465-4 0  9993
2 40908  97.4782 136.5913 0015112 327.6089 139.3495 15.13777982201617
XW-2F
1 40910U 15049M   19135.44789934  .00001035  00000-0  55348-4 0  9998
2 40910  97.4613 139.6893 0013358 314.0977 151.2337 15.17223173201823
XW-2B
1 40911U 15049N   19135.42513943  .00001586  00000-0  86536-4 0  9996
2 40911  97.4679 138.3888 0013262 323.4918 175.3143 15.15749498201710
KAITUO 1B
1 40912U 15049P   19135.39927072  .00001224  00000-0  60782-4 0  9999
2 40912  97.4503 143.2002 0013243 295.1634 171.0427 15.19525790202102
TIANWANG 1C (TW-1C)
1 40926U 15051B   19135.49174920  .00016894  00000-0  25234-3 0  9995
2 40926  97.1396 181.7193 0009804 131.5931 335.8902 15.55046598204848
